Location: Buttermere
(51.3333°N, 1.5167°W)
Time: 05:16:12
(UTC+00:00)

Cosmos 2151 Rocket - Pass Details

Date: 18 September 2020
Orbit: 618 x 642 km, 82.5° (Epoch: 20 October)

Event Time Altitude Azimuth Distance (km) Brightness Sun altitude
Rises 20:22:39 0° 199° (SSW) 2,905 6.9 -20.2°
Reaches altitude 10° 20:24:53 10° 203° (SSW) 2,006 6.1 -20.5°
Maximum altitude 20:29:17 60° 283° (WNW) 733 4.1 -21.1°
Drops below altitude 10° 20:33:45 10° 4° (N) 2,037 6.5 -21.6°
Sets 20:36:03 0° 8° (N) 2,954 7.4 -21.9°
